Location: *
(38.4303°S, 157.0822°W)
Time: 18:54:51
(UTC+00:00)

DMSP B5D2-2 - Pass Details

Date: 05 August 2024
Orbit: 787 x 802 km, 98.3° (Epoch: 07 September)

Event Time Altitude Azimuth Distance (km) Brightness Sun altitude
Rises 15:06:28 0° 168° (SSE) 3,350 7.5 -27.3°
Reaches altitude 10° 15:08:49 10° 168° (SSE) 2,411 6.7 -26.9°
Maximum altitude 15:14:10 86° 254° (WSW) 817 3.9 -25.8°
Enters shadow 15:16:28 36° 342° (NNW) 1,266 4.9 -25.4°
